#timestamp,LO_Frequency,Hit,StdDev 
1629097215.7,286047000.7,N
1629097235.5,286047000.6,N
1629097255.4,286046998.8,N
1629097275.2,286047000.7,N
1629097295.1,286046999.8,N
1629097296.0,286046999.8,N
1629097315.8,286047002.3,N
1629097335.6,286047001.0,N
1629097355.5,286047000.6,N
1629097375.3,286047000.8,N
1629097395.1,286047000.7,N
1629097415.9,286046998.3,N
1629097435.7,286046996.6,Y
1629097455.6,286046999.6,P
1629097475.4,286046998.6,P
1629097495.2,286046998.8,N
1629097515.1,286046999.0,N
1629097516.0,286046999.0,N
1629097535.8,286046997.1,Y
1629097555.7,286046999.2,P
1629097575.5,286046999.2,P
1629097595.3,286046997.2,P
1629097615.2,286046997.1,Y
1629097635.0,286046998.4,P
1629097635.9,286046998.4,P
1629097655.7,286047001.1,P
1629097675.6,286046998.2,N
1629097695.4,286047000.0,N
1629097715.3,286046999.9,N
1629097735.1,286047000.0,N
1629097736.0,286047000.0,N
1629097755.8,286047000.7,N
1629097775.7,286046999.5,N
1629097795.5,286046997.0,Y
1629097815.3,286046998.7,P
1629097835.2,286046998.6,P
1629097855.0,286046999.3,N
1629097855.9,286046999.3,N
1629097875.8,286046998.9,Y
1629097895.6,286046999.4,P
1629097915.4,286046998.4,P
1629097935.3,286046998.2,P
1629097955.1,286046998.6,N
1629097975.8,286047001.2,N
1629097995.7,286046998.2,N
1629098015.5,286046998.8,N
1629098035.4,286046999.0,N
1629098055.2,286046997.0,Y
1629098075.0,286046998.4,P
1629098075.9,286046998.4,P
1629098095.8,286047001.2,P
1629098115.6,286046998.1,N
1629098135.5,286046998.9,N
1629098155.3,286046999.6,N
1629098175.1,286046996.8,Y
1629098195.9,286046999.5,P
1629098245.7,286046996.9,E
1629098255.7,286046998.7,N
1629098275.5,286047000.6,P
1629098295.3,286047000.4,N
1629098315.2,286047002.1,N
1629098335.0,286047002.6,N
1629098335.9,286047002.6,N
1629098355.7,286047002.7,N
1629098375.6,286047002.1,N
1629098395.4,286047001.6,N
1629098415.3,286046999.7,N
1629098435.1,286047002.6,N
1629098436.0,286047002.6,N
1629098455.8,286047002.2,N
1629098475.7,286047000.2,N
1629098495.5,286047000.5,N
1629098515.3,286046998.5,N
1629098535.2,286047001.1,N
1629098555.0,286046998.8,N
1629098555.9,286046998.8,N
1629098575.8,286046999.4,N
1629098595.6,286046997.0,N
1629098615.4,286046997.4,N
1629098635.3,286046997.9,N
1629098655.1,286046996.7,N
1629098675.9,286046996.5,N
1629098695.7,286046995.4,N
1629098715.5,286046994.9,N
1629098735.4,286046995.3,N
1629098755.2,286046995.3,N
1629098775.0,286046995.1,N
1629098775.9,286046995.1,N
1629098795.8,286046998.0,N
1629098815.6,286046997.6,N
1629098835.5,286046997.1,N
1629098855.3,286046996.9,N
1629098875.1,286046998.3,N
1629098895.9,286046999.6,N
1629098915.7,286046996.8,N
1629098935.5,286046997.8,N
1629098955.4,286046996.7,N
1629098975.2,286046996.8,N
1629098995.1,286046997.9,N
1629098996.0,286046997.9,N
1629099015.8,286046995.1,Y
1629099035.6,286046996.6,P
1629099055.5,286046999.4,N
1629099075.3,286046999.3,N
1629099095.1,286046998.9,N
1629099115.9,286046998.5,N
1629099135.7,286046998.8,N
1629099155.6,286046999.4,N
1629099175.4,286046996.6,Y
1629099195.2,286046998.6,P
1629099215.1,286047000.8,P
1629099216.0,286047000.8,N
1629099235.8,286047000.9,N
1629099255.6,286047000.1,N
1629099275.5,286047000.2,N
1629099295.3,286047000.6,N
1629099315.2,286047000.5,N
1629099335.9,286047000.7,N
1629099355.7,286046998.6,N
1629099375.6,286046998.2,N
1629099395.4,286046998.6,N
1629099415.2,286047001.0,N
1629099435.1,286047000.4,N
1629099436.0,286047000.4,N
1629099455.8,286047000.6,N
1629099475.7,286047000.4,N
1629099495.5,286047000.3,N
1629099515.3,286047000.9,N
1629099535.2,286047000.6,N
1629099555.0,286046998.4,N
1629099555.9,286046998.4,N
1629099575.7,286046997.0,Y
1629099595.6,286046997.0,P
1629099615.4,286046996.8,N
1629099635.3,286046997.9,N
1629099655.1,286046997.5,N
1629099656.0,286046997.5,N
1629099675.8,286046997.9,N
1629099695.7,286046997.5,N
1629099715.5,286046995.0,Y
1629099735.4,286046998.8,P
1629099755.2,286046999.3,N
1629099775.0,286046999.2,N
1629099775.9,286046999.2,N
1629099795.8,286046999.3,N
1629099815.6,286046998.9,N
1629099835.4,286046998.3,Y
1629099855.3,286047000.5,P
1629099875.1,286047000.5,N
1629099895.9,286047001.0,N
1629099915.7,286047001.2,N
1629099935.5,286047001.1,N
1629099955.4,286047000.5,N
1629099975.2,286047000.4,N
1629099995.0,286047001.2,N
1629099995.9,286047001.2,N
1629100015.8,286047001.1,N
1629100035.6,286046998.2,N
1629100055.5,286046999.3,N
1629100075.3,286046999.2,N
1629100095.1,286046999.2,N
1629100115.9,286047001.1,N
1629100135.7,286047000.8,N
1629100155.5,286047000.0,N
1629100175.4,286047002.3,N
1629100195.2,286046999.7,N
1629100215.0,286047000.8,N
1629100216.0,286047000.8,N
1629100235.8,286047000.8,N
1629100255.6,286047000.2,N
1629100275.5,286047000.2,N
1629100295.3,286047000.8,N
1629100315.1,286046998.3,N
1629100335.9,286046996.9,Y
1629100355.7,286046997.1,P
1629100375.6,286046996.9,N
1629100395.4,286046996.7,N
1629100415.2,286046997.4,N
1629100435.1,286046997.9,N
1629100436.0,286046997.9,N
1629100455.8,286046996.8,N
1629100475.6,286046996.8,N
1629100495.5,286046997.8,N
1629100515.3,286046997.8,N
1629100535.2,286046996.7,Y
1629100555.9,286046998.2,P
1629100575.7,286047001.1,P
1629100595.6,286046998.5,N
1629100615.4,286047001.2,N
1629100635.2,286047001.0,N
1629100655.1,286047000.1,N
1629100656.0,286047000.1,N
1629100675.8,286047002.4,N
1629100695.7,286047011.9,Y
1629100715.5,286047002.1,P
1629100735.3,286047001.9,N
1629100755.2,286047002.5,N
1629100775.0,286047002.5,N
1629100775.9,286047002.5,N
1629100795.8,286047000.2,N
